| time (UTC) | temp C | wind direction | speed KPH | gust KPH | rain 1hr cm | rain 24hr cm | rain mn cm | humidity % | barometer mb |
| 20260505101527 | 6 | 342 | 0.0 | 0.0 | 0.00 | 0.03 | 0.00 | 43 | 1003.9 |
| 20260505100019 | 7 | 344 | 0.0 | 0.0 | 0.00 | 0.03 | 0.00 | 39 | 1003.4 |
| 20260505094516 | 6 | 344 | 0.0 | 0.0 | 0.00 | 0.03 | 0.00 | 39 | 1004.1 |
| 20260505093015 | 7 | 344 | 0.0 | 0.0 | 0.00 | 0.03 | 0.00 | 40 | 1004.6 |
| 20260505091512 | 7 | 344 | 0.0 | 0.0 | 0.00 | 0.03 | 0.00 | 36 | 1004.2 |
| 20260505090019 | 7 | 344 | 0.0 | 0.0 | 0.00 | 0.03 | 0.00 | 35 | 1003.8 |
| 20260505084507 | 8 | 344 | 0.0 | 0.0 | 0.00 | 0.03 | 0.00 | 35 | 1003.4 |
| 20260505083006 | 8 | 343 | 3.2 | 11.3 | 0.00 | 0.03 | 0.00 | 34 | 1003.3 |
| 20260505081504 | 8 | 15 | 11.3 | 19.3 | 0.00 | 0.03 | 0.00 | 33 | 1002.7 |
| 20260505080004 | 8 | 348 | 11.3 | 17.7 | 0.00 | 0.03 | 0.00 | 32 | 1002.1 |
| 20260505074559 | 8 | 335 | 6.4 | 17.7 | 0.00 | 0.03 | 0.00 | 32 | 1002.1 |
| 20260505073104 | 9 | 360 | 9.7 | 17.7 | 0.00 | 0.03 | 0.00 | 32 | 1003.5 |
| 20260505071555 | 9 | 308 | 16.1 | 24.1 | 0.00 | 0.03 | 0.00 | 30 | 1002.9 |
| 20260505070053 | 9 | 346 | 12.9 | 32.2 | 0.00 | 0.03 | 0.00 | 30 | 1002.8 |
| 20260505064551 | 10 | 360 | 16.1 | 24.1 | 0.00 | 0.03 | 0.00 | 31 | 1002.9 |
| 20260505063049 | 10 | 5 | 11.3 | 29.0 | 0.00 | 0.03 | 0.00 | 32 | 1002.5 |
| 20260505061549 | 10 | 350 | 19.3 | 29.0 | 0.00 | 0.03 | 0.00 | 32 | 1002.7 |
| 20260505060045 | 10 | 314 | 17.7 | 32.2 | 0.00 | 0.03 | 0.00 | 31 | 1002.3 |
| 20260505054546 | 10 | 5 | 17.7 | 33.8 | 0.00 | 0.03 | 0.00 | 30 | 1002.2 |
| 20260505053038 | 11 | 5 | 12.9 | 25.7 | 0.00 | 0.03 | 0.00 | 30 | 1002.4 |
| 20260505051537 | 11 | 355 | 14.5 | 30.6 | 0.00 | 0.03 | 0.00 | 31 | 1002.2 |
| 20260505041531 | 11 | 329 | 24.1 | 48.3 | 0.00 | 0.03 | 0.03 | 30 | 1000.2 |
| 20260505040031 | 12 | 344 | 27.4 | 43.5 | 0.00 | 0.03 | 0.03 | 29 | 1000.5 |
| 20260505034530 | 12 | 360 | 32.2 | 43.5 | 0.03 | 0.03 | 0.03 | 30 | 1000.6 |
| 20260505033036 | 12 | 318 | 29.0 | 43.5 | 0.03 | 0.03 | 0.03 | 31 | 1000.2 |
| 20260505031530 | 13 | 355 | 29.0 | 48.3 | 0.03 | 0.03 | 0.03 | 30 | 1000.0 |
| 20260505030028 | 13 | 360 | 27.4 | 45.1 | 0.03 | 0.03 | 0.03 | 27 | 999.9 |
| 20260505024543 | 14 | 322 | 19.3 | 38.6 | 0.00 | 0.00 | 0.00 | 27 | 1000.0 |
| 20260505023036 | 14 | 336 | 11.3 | 19.3 | 0.00 | 0.00 | 0.00 | 25 | 999.9 |
| 20260505021526 | 14 | 15 | 16.1 | 32.2 | 0.00 | 0.00 | 0.00 | 24 | 999.0 |
| 20260505020025 | 13 | 346 | 14.5 | 33.8 | 0.00 | 0.00 | 0.00 | 24 | 999.0 |
| 20260505014534 | 14 | 5 | 16.1 | 29.0 | 0.00 | 0.00 | 0.00 | 23 | 999.0 |
| 20260505013024 | 15 | 320 | 17.7 | 40.2 | 0.00 | 0.00 | 0.00 | 23 | 998.3 |
| 20260505011524 | 15 | 355 | 20.9 | 37.0 | 0.00 | 0.00 | 0.00 | 23 | 998.1 |
| 20260505010023 | 16 | 319 | 24.1 | 33.8 | 0.00 | 0.00 | 0.00 | 21 | 997.7 |
| 20260505004521 | 17 | 329 | 20.9 | 33.8 | 0.00 | 0.00 | 0.00 | 20 | 997.5 |
| 20260505003021 | 17 | 344 | 22.5 | 37.0 | 0.00 | 0.00 | 0.00 | 19 | 997.4 |
| 20260505001521 | 18 | 321 | 29.0 | 45.1 | 0.00 | 0.00 | 0.00 | 17 | 997.3 |
| 20260505000021 | 19 | 360 | 25.7 | 40.2 | 0.00 | 0.00 | 0.00 | 19 | 996.9 |
| 20260504234519 | 20 | 360 | 22.5 | 38.6 | 0.00 | 0.00 | 0.00 | 20 | 996.8 |
| 20260504233018 | 20 | 338 | 22.5 | 41.8 | 0.00 | 0.00 | 0.00 | 18 | 996.5 |
| 20260504231518 | 21 | 350 | 27.4 | 37.0 | 0.00 | 0.00 | 0.00 | 16 | 996.4 |
| 20260504230017 | 21 | 350 | 29.0 | 46.7 | 0.00 | 0.00 | 0.00 | 17 | 996.2 |
| 20260504224516 | 22 | 346 | 24.1 | 43.5 | 0.00 | 0.00 | 0.00 | 16 | 995.9 |
| 20260504223015 | 23 | 319 | 14.5 | 35.4 | 0.00 | 0.00 | 0.00 | 16 | 995.7 |
| 20260504221514 | 23 | 11 | 17.7 | 37.0 | 0.00 | 0.00 | 0.00 | 16 | 995.5 |
| 20260504220014 | 23 | 309 | 24.1 | 40.2 | 0.00 | 0.00 | 0.00 | 16 | 995.3 |
| 20260504214512 | 23 | 360 | 32.2 | 41.8 | 0.00 | 0.00 | 0.00 | 15 | 995.6 |
| 20260504213018 | 25 | 340 | 17.7 | 38.6 | 0.00 | 0.00 | 0.00 | 16 | 995.0 |
| 20260504211516 | 25 | 5 | 17.7 | 33.8 | 0.00 | 0.00 | 0.00 | 17 | 994.7 |
| 20260504210016 | 25 | 5 | 22.5 | 35.4 | 0.00 | 0.00 | 0.00 | 19 | 994.5 |
| 20260504204521 | 25 | 301 | 14.5 | 30.6 | 0.00 | 0.00 | 0.00 | 20 | 994.3 |
| 20260504203010 | 25 | 294 | 17.7 | 30.6 | 0.00 | 0.00 | 0.00 | 19 | 994.5 |
| 20260504201509 | 26 | 257 | 25.7 | 40.2 | 0.00 | 0.00 | 0.00 | 15 | 994.4 |
| 20260504200008 | 26 | 280 | 29.0 | 37.0 | 0.00 | 0.00 | 0.00 | 16 | 994.4 |
| 20260504194507 | 26 | 256 | 27.4 | 45.1 | 0.00 | 0.00 | 0.00 | 15 | 994.4 |
| 20260504193004 | 26 | 261 | 29.0 | 43.5 | 0.00 | 0.00 | 0.00 | 15 | 994.5 |
| 20260504191502 | 26 | 290 | 29.0 | 43.5 | 0.00 | 0.00 | 0.00 | 17 | 994.5 |
| 20260504190101 | 25 | 310 | 27.4 | 46.7 | 0.00 | 0.00 | 0.00 | 18 | 994.6 |
| 20260504184602 | 25 | 360 | 20.9 | 41.8 | 0.00 | 0.00 | 0.00 | 20 | 995.0 |
| 20260504183103 | 26 | 282 | 27.4 | 45.1 | 0.00 | 0.00 | 0.00 | 19 | 994.8 |
| 20260504181555 | 25 | 242 | 32.2 | 43.5 | 0.00 | 0.00 | 0.00 | 19 | 994.8 |
| 20260504180108 | 25 | 257 | 25.7 | 41.8 | 0.00 | 0.00 | 0.00 | 19 | 994.9 |
| 20260504174552 | 25 | 294 | 29.0 | 43.5 | 0.00 | 0.00 | 0.00 | 17 | 994.9 |
| 20260504173105 | 25 | 253 | 30.6 | 40.2 | 0.00 | 0.00 | 0.00 | 19 | 995.0 |
| 20260504171554 | 25 | 360 | 30.6 | 49.9 | 0.00 | 0.00 | 0.00 | 18 | 995.1 |